Regional Weather Roundup
Issued by NWS

Home | Current Version | Previous Version | Text Only | Print | Product List | Glossary Off
Versions: 1 2 3 4 5 6 7 8 9 10 11 12 13 14 15 16 17 18 19 20 21 22 23 24 25 26 27 28 29 30 31 32 33 34 35 36 37 38 39 40 41 42 43 44 45 46 47 48 49 50

000
ASUS43 KIND 162309
RWRIN

WEATHER ROUNDUP FOR INDIANA
NATIONAL WEATHER SERVICE INDIANAPOLIS IN
700 PM EDT WED APR 16 2014

NOTE: "FAIR" INDICATES FEW OR NO CLOUDS BELOW 12,000 FEET WITH NO
SIGNIFICANT WEATHER AND/OR OBSTRUCTIONS TO VISIBILITY.

* - STATION DOES NOT REPORT WEATHER SUCH AS PRECIPITATION OR FOG.

+ - STATION NOT QUALITY CONTROLLED BY THE NATIONAL WEATHER SERVICE.
    USE DATA WITH CAUTION...ESPECIALLY DEWPOINT AND RELATIVE
    HUMIDITY OBSERVATIONS.

INZ001>003-010>013-019-020-170000-
NORTHWEST INDIANA

CITY           SKY/WX    TMP DP  RH WIND       PRES   REMARKS
GARY /AIRPORT/ MOSUNNY   52  21  30 SE17G31   30.17F
LA PORTE +     SUNNY     48  20  33 SE12G23   30.20F
MICHIGAN CITY+ SUNNY     50  18  27 S12G20    30.20F
MONTICELLO +   SUNNY     50  23  35 SE15G21   30.19F
RENSSELAER +   SUNNY     52  21  30 SE13G22   30.18F
VALPARAISO     SUNNY     49  20  31 S16G26    30.19F

$$

LMZ046-743>745-170000-
SOUTHERN LAKE MICHIGAN

STATION/POSITION TIME  TEMP WIND        PRES
                       AIR  DIR/SP/G
                 (UTC) (F)  (DEG/KT/KT) (MB)
MICHIGAN CITY    2300   48  120/ 18/ 25   N/A

$$

INZ004-005-014>016-021>024-170000-
NORTH CENTRAL INDIANA

CITY           SKY/WX    TMP DP  RH WIND       PRES   REMARKS
GOSHEN         MOSUNNY   48  21  34 SE16      30.25S
LOGANSPORT +   SUNNY     48  23  37 SE16      30.22F
PERU/GRISSOM   SUNNY     50  25  37 SE17      30.22F
ROCHESTER +    SUNNY     50  23  34 SE14G22   30.23F
SOUTH BEND     SUNNY     49  21  33 SE21G29   30.23F
WARSAW +       SUNNY     46  23  39 SE10G20   30.25F

$$

INZ006>009-017-018-025>027-170000-
NORTHEAST INDIANA

CITY           SKY/WX    TMP DP  RH WIND       PRES   REMARKS
ANGOLA *+      SUNNY     43  25  49 SE16      30.28S
AUBURN +       MOSUNNY   46  21  36 SE8G20    30.29S
FORT WAYNE     MOSUNNY   47  22  37 SE14G21   30.28F

$$

INZ028-029-035-036-043>045-051>053-170000-
WEST CENTRAL INDIANA

CITY           SKY/WX    TMP DP  RH WIND       PRES   REMARKS
GREENCASTLE +  MOSUNNY   50  23  34 SE14      30.19F
LAFAYETTE      SUNNY     50  22  33 SE16      30.19F
TERRE HAUTE    PTSUNNY   52  23  32 S15       30.17F

$$

INZ030>032-037>040-046>048-054>057-064-065-170000-
CENTRAL INDIANA

CITY           SKY/WX    TMP DP  RH WIND       PRES   REMARKS
CP ATTERBURY + MOSUNNY   50  23  34 E10       30.22F
COLUMBUS       SUNNY     50  19  29 SE12      30.23F
GREENWOOD *+   PTSUNNY   48  23  37 SE9       30.22
INDIANAPOLIS   PTSUNNY   48  21  34 SE17      30.20F
-EAGLE CREEK   MOSUNNY   49  20  31 SE10      30.20F
KOKOMO *+      MOSUNNY   48  25  40 SE17      30.22S
MARION +       SUNNY     48  20  33 SE15      30.24F
MT COMFORT *+  MOSUNNY   48  23  37 SE13      30.23F
SHELBYVILLE    PTSUNNY   51  22  31 SE15      30.22F
ZIONSVILLE +   MOSUNNY   49  18  28 SE15G23   30.21F

$$

INZ033-034-041-042-049-050-058-059-170000-
EAST CENTRAL INDIANA

CITY           SKY/WX    TMP DP  RH WIND       PRES   REMARKS
MUNCIE         SUNNY     47  21  35 SE13G22   30.25F

$$

INZ060-061-067>069-081>083-085>088-170000-
SOUTHWEST INDIANA

CITY           SKY/WX    TMP DP  RH WIND       PRES   REMARKS
EVANSVILLE     MOSUNNY   55  24  30 SE9       30.18F
HUNTINGBURG *+ MOSUNNY   54  23  30 S12       30.19S
WASHINGTON +   PTSUNNY   52  30  42 SE12      30.17F

$$

INZ062-063-066-070>080-084-089>092-170000-
SOUTH CENTRAL AND SOUTHEAST INDIANA

CITY           SKY/WX    TMP DP  RH WIND       PRES   REMARKS
BLOOMINGTON    PTSUNNY   50  21  32 SE13      30.19F
SEYMOUR +      MOSUNNY   48   7  18 SE12      30.22F

$$




USA.gov is the U.S. government's official web portal to all federal, state and local government web resources and services.